| time (UTC) | temp C | wind direction | speed KPH | gust KPH | rain 1hr cm | rain 24hr cm | rain mn cm | humidity % | barometer mb |
| 20260507060951 | 8 | 118 | 0.0 | 0.0 | 0.00 | 0.00 | 0.00 | 94 | 1020.3 |
| 20260507060448 | 8 | 119 | 0.0 | 1.6 | 0.00 | 0.00 | 0.00 | 94 | 1020.3 |
| 20260507055944 | 9 | 114 | 0.0 | 0.0 | 0.00 | 0.00 | 0.00 | 94 | 1020.5 |
| 20260507055440 | 9 | 121 | 3.2 | 3.2 | 0.00 | 0.00 | 0.00 | 94 | 1020.3 |
| 20260507054937 | 9 | 105 | 1.6 | 3.2 | 0.00 | 0.00 | 0.00 | 95 | 1020.1 |
| 20260507054433 | 9 | 64 | 1.6 | 1.6 | 0.00 | 0.00 | 0.00 | 95 | 1020.0 |
| 20260507053930 | 9 | 67 | 0.0 | 0.0 | 0.00 | 0.00 | 0.00 | 95 | 1019.9 |
| 20260507053428 | 8 | 81 | 0.0 | 1.6 | 0.00 | 0.00 | 0.00 | 95 | 1020.0 |
| 20260507052926 | 8 | 123 | 0.0 | 0.0 | 0.00 | 0.00 | 0.00 | 95 | 1019.9 |
| 20260507052423 | 8 | 123 | 0.0 | 0.0 | 0.00 | 0.00 | 0.00 | 95 | 1020.2 |
| 20260507051920 | 8 | 123 | 0.0 | 0.0 | 0.00 | 0.00 | 0.00 | 95 | 1019.9 |
| 20260507051418 | 8 | 123 | 0.0 | 0.0 | 0.00 | 0.00 | 0.00 | 95 | 1020.0 |
| 20260507050915 | 8 | 123 | 1.6 | 1.6 | 0.00 | 0.00 | 0.00 | 95 | 1020.1 |
| 20260507050411 | 8 | 123 | 0.0 | 0.0 | 0.00 | 0.00 | 0.00 | 94 | 1019.8 |
| 20260507045908 | 8 | 123 | 0.0 | 0.0 | 0.00 | 0.00 | 0.00 | 94 | 1020.2 |
| 20260507045405 | 8 | 123 | 0.0 | 0.0 | 0.00 | 0.00 | 0.00 | 94 | 1020.1 |
| 20260507044902 | 8 | 124 | 0.0 | 0.0 | 0.00 | 0.00 | 0.00 | 94 | 1020.1 |
| 20260507044358 | 8 | 124 | 0.0 | 0.0 | 0.00 | 0.00 | 0.00 | 94 | 1020.2 |
| 20260507043854 | 8 | 123 | 0.0 | 0.0 | 0.00 | 0.00 | 0.00 | 94 | 1020.2 |
| 20260507043351 | 8 | 123 | 0.0 | 0.0 | 0.00 | 0.00 | 0.00 | 94 | 1020.2 |
| 20260507042847 | 8 | 123 | 0.0 | 0.0 | 0.00 | 0.00 | 0.00 | 93 | 1020.1 |
| 20260507042343 | 9 | 123 | 0.0 | 1.6 | 0.00 | 0.00 | 0.00 | 93 | 1020.1 |
| 20260507041840 | 9 | 123 | 0.0 | 1.6 | 0.00 | 0.00 | 0.00 | 93 | 1020.1 |
| 20260507041337 | 10 | 124 | 0.0 | 0.0 | 0.00 | 0.00 | 0.00 | 93 | 1020.0 |
| 20260507040834 | 10 | 124 | 0.0 | 0.0 | 0.00 | 0.00 | 0.00 | 93 | 1020.1 |
| 20260507040330 | 10 | 124 | 0.0 | 1.6 | 0.00 | 0.00 | 0.00 | 92 | 1020.1 |
| 20260507035826 | 10 | 124 | 0.0 | 0.0 | 0.00 | 0.00 | 0.00 | 93 | 1019.9 |
| 20260507035321 | 10 | 124 | 0.0 | 0.0 | 0.00 | 0.00 | 0.00 | 93 | 1019.8 |
| 20260507034820 | 10 | 124 | 0.0 | 0.0 | 0.00 | 0.00 | 0.00 | 93 | 1019.9 |
| 20260507034316 | 10 | 123 | 0.0 | 0.0 | 0.00 | 0.00 | 0.00 | 93 | 1019.8 |
| 20260507033814 | 9 | 122 | 0.0 | 0.0 | 0.00 | 0.00 | 0.00 | 93 | 1019.9 |
| 20260507033312 | 10 | 122 | 0.0 | 0.0 | 0.00 | 0.00 | 0.00 | 93 | 1019.7 |
| 20260507032809 | 10 | 122 | 0.0 | 0.0 | 0.00 | 0.00 | 0.00 | 93 | 1019.7 |
| 20260507032306 | 10 | 122 | 0.0 | 0.0 | 0.00 | 0.00 | 0.00 | 93 | 1019.9 |
| 20260507031801 | 10 | 123 | 0.0 | 0.0 | 0.00 | 0.00 | 0.00 | 93 | 1019.9 |
| 20260507031258 | 10 | 122 | 0.0 | 0.0 | 0.00 | 0.00 | 0.00 | 92 | 1019.6 |
| 20260507030755 | 10 | 122 | 0.0 | 0.0 | 0.00 | 0.00 | 0.00 | 92 | 1019.8 |
| 20260507030252 | 10 | 122 | 1.6 | 1.6 | 0.00 | 0.00 | 0.00 | 92 | 1019.8 |
| 20260507025749 | 10 | 121 | 0.0 | 0.0 | 0.00 | 0.00 | 0.00 | 92 | 1019.5 |
| 20260507025246 | 10 | 121 | 0.0 | 0.0 | 0.00 | 0.00 | 0.00 | 92 | 1019.6 |
| 20260507024745 | 10 | 118 | 0.0 | 1.6 | 0.00 | 0.00 | 0.00 | 93 | 1019.4 |
| 20260507024241 | 10 | 114 | 0.0 | 0.0 | 0.00 | 0.00 | 0.00 | 93 | 1019.3 |
| 20260507023737 | 10 | 113 | 0.0 | 0.0 | 0.00 | 0.00 | 0.00 | 93 | 1019.2 |
| 20260507023234 | 10 | 108 | 0.0 | 0.0 | 0.00 | 0.00 | 0.00 | 94 | 1019.4 |
| 20260507022731 | 10 | 108 | 0.0 | 0.0 | 0.00 | 0.00 | 0.00 | 93 | 1019.1 |
| 20260507022227 | 10 | 108 | 0.0 | 0.0 | 0.00 | 0.00 | 0.00 | 93 | 1019.2 |
| 20260507021724 | 10 | 108 | 0.0 | 0.0 | 0.00 | 0.00 | 0.00 | 93 | 1019.2 |
| 20260507021219 | 10 | 108 | 0.0 | 0.0 | 0.00 | 0.00 | 0.00 | 93 | 1018.9 |
| 20260507020718 | 10 | 108 | 0.0 | 0.0 | 0.00 | 0.00 | 0.00 | 93 | 1018.9 |
| 20260507020214 | 10 | 108 | 0.0 | 0.0 | 0.00 | 0.00 | 0.00 | 93 | 1018.8 |
| 20260507015712 | 10 | 110 | 0.0 | 0.0 | 0.00 | 0.53 | 0.53 | 92 | 1018.8 |
| 20260507015209 | 10 | 110 | 0.0 | 1.6 | 0.00 | 0.53 | 0.53 | 92 | 1019.0 |
| 20260507014705 | 10 | 93 | 0.0 | 0.0 | 0.00 | 0.53 | 0.53 | 92 | 1018.8 |
| 20260507014201 | 10 | 112 | 1.6 | 1.6 | 0.00 | 0.53 | 0.53 | 92 | 1018.9 |
| 20260507013658 | 10 | 111 | 0.0 | 0.0 | 0.00 | 0.53 | 0.53 | 92 | 1018.7 |
| 20260507013156 | 10 | 90 | 0.0 | 0.0 | 0.00 | 0.53 | 0.53 | 91 | 1018.6 |
| 20260507012653 | 11 | 106 | 0.0 | 0.0 | 0.00 | 0.53 | 0.53 | 91 | 1018.8 |
| 20260507012148 | 11 | 108 | 1.6 | 1.6 | 0.00 | 0.53 | 0.53 | 91 | 1018.7 |
| 20260507011647 | 11 | 79 | 0.0 | 0.0 | 0.00 | 0.53 | 0.53 | 91 | 1018.9 |
| 20260507011142 | 11 | 96 | 0.0 | 0.0 | 0.00 | 0.53 | 0.53 | 91 | 1018.9 |
| 20260507010637 | 11 | 107 | 0.0 | 0.0 | 0.00 | 0.53 | 0.53 | 91 | 1018.9 |
| 20260507010133 | 11 | 115 | 0.0 | 0.0 | 0.00 | 0.53 | 0.53 | 90 | 1018.8 |
| 20260507005631 | 11 | 113 | 0.0 | 1.6 | 0.00 | 0.53 | 0.53 | 90 | 1019.0 |
| 20260507005122 | 11 | 105 | 0.0 | 0.0 | 0.00 | 0.53 | 0.53 | 90 | 1018.9 |
| 20260507004619 | 11 | 116 | 1.6 | 1.6 | 0.00 | 0.53 | 0.53 | 89 | 1018.8 |
| 20260507004116 | 11 | 77 | 0.0 | 0.0 | 0.00 | 0.53 | 0.53 | 89 | 1019.2 |
| 20260507003612 | 11 | 110 | 0.0 | 0.0 | 0.00 | 0.53 | 0.53 | 89 | 1018.8 |
| 20260507003107 | 11 | 123 | 1.6 | 3.2 | 0.00 | 0.53 | 0.53 | 89 | 1018.8 |
| 20260507002604 | 11 | 134 | 1.6 | 3.2 | 0.00 | 0.53 | 0.53 | 90 | 1018.8 |
| 20260507002059 | 12 | 96 | 0.0 | 0.0 | 0.00 | 0.53 | 0.53 | 90 | 1018.6 |
| 20260507001557 | 12 | 73 | 0.0 | 1.6 | 0.00 | 0.53 | 0.53 | 90 | 1018.8 |
| 20260507001054 | 12 | 142 | 3.2 | 3.2 | 0.00 | 0.53 | 0.53 | 90 | 1018.6 |
| 20260507000550 | 12 | 106 | 0.0 | 0.0 | 0.00 | 0.53 | 0.53 | 88 | 1018.8 |
| 20260507000046 | 12 | 100 | 0.0 | 0.0 | 0.00 | 0.53 | 0.53 | 88 | 1018.6 |
| 20260506235544 | 12 | 110 | 1.6 | 1.6 | 0.00 | 0.53 | 0.53 | 88 | 1018.5 |
| 20260506235039 | 12 | 117 | 1.6 | 1.6 | 0.00 | 0.53 | 0.53 | 88 | 1018.4 |
| 20260506234537 | 12 | 148 | 6.4 | 6.4 | 0.00 | 0.53 | 0.53 | 88 | 1018.2 |
| 20260506234033 | 12 | 130 | 6.4 | 6.4 | 0.00 | 0.53 | 0.53 | 90 | 1018.4 |
| 20260506233530 | 12 | 99 | 0.0 | 0.0 | 0.00 | 0.53 | 0.53 | 89 | 1018.3 |
| 20260506233021 | 12 | 96 | 0.0 | 1.6 | 0.00 | 0.53 | 0.53 | 89 | 1018.5 |
| 20260506232517 | 12 | 59 | 1.6 | 1.6 | 0.00 | 0.53 | 0.53 | 89 | 1018.3 |
| 20260506232013 | 12 | 34 | 1.6 | 3.2 | 0.00 | 0.53 | 0.53 | 89 | 1018.1 |
| 20260506231511 | 12 | 60 | 0.0 | 1.6 | 0.00 | 0.53 | 0.53 | 89 | 1018.1 |
| 20260506231009 | 12 | 74 | 0.0 | 0.0 | 0.00 | 0.53 | 0.53 | 88 | 1017.9 |
| 20260506230504 | 12 | 82 | 0.0 | 0.0 | 0.00 | 0.53 | 0.53 | 88 | 1017.8 |
| 20260506230001 | 12 | 125 | 1.6 | 3.2 | 0.00 | 0.53 | 0.53 | 88 | 1017.9 |
| 20260506225458 | 12 | 111 | 3.2 | 4.8 | 0.00 | 0.53 | 0.53 | 87 | 1017.9 |
| 20260506224954 | 12 | 356 | 1.6 | 3.2 | 0.00 | 0.53 | 0.53 | 87 | 1018.1 |
| 20260506224451 | 13 | 103 | 1.6 | 3.2 | 0.00 | 0.53 | 0.53 | 87 | 1017.6 |
| 20260506223948 | 13 | 201 | 8.0 | 9.7 | 0.00 | 0.53 | 0.53 | 87 | 1017.9 |
| 20260506223444 | 13 | 140 | 1.6 | 3.2 | 0.00 | 0.53 | 0.53 | 88 | 1017.7 |
| 20260506222941 | 13 | 39 | 4.8 | 4.8 | 0.00 | 0.53 | 0.53 | 88 | 1017.6 |
| 20260506222438 | 13 | 152 | 3.2 | 4.8 | 0.00 | 0.53 | 0.53 | 88 | 1017.8 |
| 20260506221934 | 13 | 262 | 6.4 | 6.4 | 0.00 | 0.53 | 0.53 | 89 | 1017.6 |
| 20260506221431 | 13 | 142 | 4.8 | 6.4 | 0.00 | 0.53 | 0.53 | 89 | 1017.4 |
| 20260506220930 | 13 | 156 | 1.6 | 3.2 | 0.00 | 0.53 | 0.53 | 89 | 1017.5 |
| 20260506220425 | 13 | 93 | 1.6 | 1.6 | 0.00 | 0.53 | 0.53 | 88 | 1017.6 |
| 20260506215921 | 13 | 154 | 3.2 | 6.4 | 0.00 | 0.53 | 0.53 | 88 | 1017.7 |
| 20260506215418 | 13 | 66 | 1.6 | 3.2 | 0.00 | 0.53 | 0.53 | 88 | 1017.5 |
| 20260506214913 | 13 | 111 | 0.0 | 0.0 | 0.00 | 0.53 | 0.53 | 87 | 1017.1 |
| 20260506214411 | 13 | 122 | 3.2 | 3.2 | 0.00 | 0.53 | 0.53 | 87 | 1017.2 |
| 20260506213908 | 13 | 212 | 4.8 | 6.4 | 0.00 | 0.53 | 0.53 | 87 | 1017.1 |
| 20260506213406 | 13 | 43 | 1.6 | 1.6 | 0.00 | 0.53 | 0.53 | 87 | 1016.9 |
| 20260506212903 | 13 | 194 | 3.2 | 4.8 | 0.00 | 0.53 | 0.53 | 86 | 1016.9 |
| 20260506212359 | 13 | 219 | 4.8 | 4.8 | 0.00 | 0.53 | 0.53 | 86 | 1016.7 |
| 20260506211853 | 13 | 135 | 1.6 | 1.6 | 0.00 | 0.53 | 0.53 | 86 | 1016.9 |
| 20260506211350 | 13 | 214 | 4.8 | 4.8 | 0.00 | 0.53 | 0.53 | 86 | 1016.7 |
| 20260506210842 | 13 | 223 | 9.7 | 12.9 | 0.00 | 0.53 | 0.53 | 86 | 1016.8 |
| 20260506210339 | 14 | 226 | 6.4 | 11.3 | 0.00 | 0.53 | 0.53 | 86 | 1016.8 |
| 20260506205836 | 14 | 319 | 6.4 | 6.4 | 0.00 | 0.53 | 0.53 | 86 | 1016.7 |
| 20260506205331 | 14 | 106 | 1.6 | 1.6 | 0.00 | 0.53 | 0.53 | 87 | 1016.8 |
| 20260506204823 | 14 | 48 | 3.2 | 3.2 | 0.00 | 0.53 | 0.53 | 87 | 1016.9 |
| 20260506204320 | 14 | 151 | 1.6 | 1.6 | 0.00 | 0.53 | 0.53 | 87 | 1016.8 |
| 20260506203818 | 14 | 206 | 4.8 | 6.4 | 0.00 | 0.53 | 0.53 | 87 | 1016.8 |
| 20260506203315 | 14 | 243 | 6.4 | 9.7 | 0.00 | 0.53 | 0.53 | 87 | 1016.6 |
| 20260506202812 | 14 | 163 | 3.2 | 4.8 | 0.00 | 0.53 | 0.53 | 88 | 1016.6 |
| 20260506202309 | 14 | 121 | 1.6 | 1.6 | 0.00 | 0.53 | 0.53 | 89 | 1016.4 |
| 20260506201805 | 14 | 214 | 4.8 | 4.8 | 0.00 | 0.53 | 0.53 | 89 | 1016.6 |
| 20260506201302 | 14 | 232 | 3.2 | 6.4 | 0.00 | 0.53 | 0.53 | 89 | 1016.8 |
| 20260506200759 | 13 | 261 | 8.0 | 12.9 | 0.00 | 0.53 | 0.53 | 90 | 1016.7 |
| 20260506200255 | 13 | 233 | 3.2 | 4.8 | 0.00 | 0.53 | 0.53 | 91 | 1016.4 |
| 20260506195752 | 14 | 184 | 11.3 | 16.1 | 0.00 | 0.53 | 0.53 | 92 | 1016.6 |
| 20260506195249 | 14 | 228 | 6.4 | 9.7 | 0.00 | 0.53 | 0.53 | 91 | 1016.4 |
| 20260506194746 | 14 | 170 | 9.7 | 14.5 | 0.00 | 0.53 | 0.53 | 90 | 1016.6 |
| 20260506194242 | 15 | 205 | 8.0 | 11.3 | 0.00 | 0.53 | 0.53 | 91 | 1016.2 |
| 20260506193740 | 14 | 203 | 3.2 | 4.8 | 0.00 | 0.53 | 0.53 | 92 | 1016.5 |
| 20260506193236 | 15 | 280 | 6.4 | 6.4 | 0.00 | 0.53 | 0.53 | 92 | 1016.4 |
| 20260506192733 | 15 | 61 | 0.0 | 0.0 | 0.00 | 0.53 | 0.53 | 92 | 1016.2 |
| 20260506192230 | 15 | 54 | 3.2 | 4.8 | 0.00 | 0.53 | 0.53 | 92 | 1016.1 |
| 20260506191727 | 14 | 307 | 3.2 | 4.8 | 0.00 | 0.53 | 0.53 | 92 | 1016.1 |
| 20260506191223 | 14 | 104 | 3.2 | 3.2 | 0.00 | 0.53 | 0.53 | 96 | 1015.9 |
| 20260506190720 | 14 | 152 | 3.2 | 3.2 | 0.00 | 0.53 | 0.53 | 98 | 1015.9 |
| 20260506190217 | 14 | 213 | 8.0 | 12.9 | 0.00 | 0.53 | 0.53 | 99 | 1015.9 |
| 20260506185715 | 13 | 227 | 4.8 | 6.4 | 0.00 | 0.53 | 0.53 | 99 | 1015.6 |
| 20260506185210 | 14 | 68 | 3.2 | 6.4 | 0.00 | 0.53 | 0.53 | 99 | 1015.7 |
| 20260506184708 | 14 | 225 | 1.6 | 3.2 | 0.00 | 0.53 | 0.53 | 99 | 1015.7 |
| 20260506184205 | 13 | 260 | 6.4 | 9.7 | 0.00 | 0.53 | 0.53 | 99 | 1015.4 |
| 20260506183701 | 13 | 266 | 6.4 | 9.7 | 0.00 | 0.53 | 0.53 | 99 | 1015.4 |
| 20260506183157 | 14 | 330 | 1.6 | 1.6 | 0.00 | 0.53 | 0.53 | 99 | 1015.0 |
| 20260506182655 | 14 | 290 | 3.2 | 6.4 | 0.00 | 0.53 | 0.53 | 99 | 1015.3 |
| 20260506182151 | 14 | 297 | 3.2 | 3.2 | 0.00 | 0.53 | 0.53 | 99 | 1015.0 |
| 20260506181644 | 14 | 86 | 1.6 | 1.6 | 0.00 | 0.53 | 0.53 | 99 | 1015.1 |
| 20260506181141 | 13 | 43 | 4.8 | 4.8 | 0.00 | 0.53 | 0.53 | 99 | 1015.3 |
| 20260506180638 | 14 | 320 | 4.8 | 12.9 | 0.00 | 0.53 | 0.53 | 99 | 1015.1 |
| 20260506180134 | 14 | 16 | 4.8 | 4.8 | 0.00 | 0.53 | 0.53 | 99 | 1015.0 |
| 20260506175630 | 15 | 261 | 6.4 | 9.7 | 0.00 | 0.53 | 0.53 | 99 | 1015.3 |
| 20260506175125 | 15 | 328 | 8.0 | 11.3 | 0.13 | 0.53 | 0.53 | 99 | 1014.9 |
| 20260506174620 | 14 | 345 | 6.4 | 9.7 | 0.13 | 0.53 | 0.53 | 99 | 1015.0 |
| 20260506174116 | 14 | 308 | 8.0 | 11.3 | 0.00 | 0.51 | 0.51 | 99 | 1014.9 |
| 20260506173614 | 14 | 333 | 16.1 | 22.5 | 0.00 | 0.51 | 0.51 | 99 | 1015.0 |
| 20260506173110 | 15 | 313 | 3.2 | 4.8 | 0.00 | 0.51 | 0.51 | 99 | 1015.1 |
| 20260506172608 | 14 | 344 | 9.7 | 14.5 | 0.00 | 0.51 | 0.51 | 99 | 1014.7 |
| 20260506172103 | 14 | 342 | 11.3 | 14.5 | 0.00 | 0.51 | 0.51 | 99 | 1015.0 |
| 20260506171601 | 14 | 333 | 9.7 | 12.9 | 0.18 | 0.51 | 0.51 | 99 | 1014.9 |
| 20260506171059 | 14 | 341 | 16.1 | 20.9 | 0.30 | 0.51 | 0.51 | 99 | 1014.8 |
| 20260506170555 | 13 | 38 | 14.5 | 20.9 | 0.13 | 0.48 | 0.48 | 99 | 1014.7 |
| 20260506170047 | 14 | 12 | 14.5 | 17.7 | 0.18 | 0.46 | 0.46 | 99 | 1014.6 |
| 20260506165546 | 14 | 280 | 14.5 | 17.7 | 0.48 | 0.46 | 0.46 | 99 | 1014.6 |
| 20260506165042 | 13 | 337 | 16.1 | 24.1 | 0.79 | 0.43 | 0.43 | 99 | 1014.5 |
| 20260506164539 | 13 | 359 | 9.7 | 12.9 | 0.48 | 0.38 | 0.38 | 99 | 1014.4 |
| 20260506164036 | 13 | 347 | 16.1 | 20.9 | 0.18 | 0.33 | 0.33 | 99 | 1014.4 |
| 20260506163532 | 13 | 344 | 9.7 | 11.3 | 0.00 | 0.30 | 0.30 | 99 | 1014.4 |
| 20260506163027 | 14 | 359 | 11.3 | 16.1 | 0.00 | 0.30 | 0.30 | 99 | 1014.5 |
| 20260506162524 | 14 | 1 | 16.1 | 17.7 | 0.00 | 0.30 | 0.30 | 99 | 1014.4 |
| 20260506162015 | 13 | 358 | 16.1 | 17.7 | 0.00 | 0.30 | 0.30 | 99 | 1014.1 |
| 20260506161512 | 14 | 30 | 12.9 | 16.1 | 0.13 | 0.30 | 0.30 | 99 | 1014.1 |
| 20260506161004 | 14 | 356 | 17.7 | 24.1 | 0.30 | 0.30 | 0.30 | 99 | 1013.9 |
| 20260506160502 | 14 | 331 | 17.7 | 20.9 | 0.18 | 0.28 | 0.28 | 99 | 1014.1 |
| 20260506155958 | 14 | 333 | 14.5 | 16.1 | 0.00 | 0.25 | 0.25 | 99 | 1014.1 |
| 20260506155456 | 14 | 21 | 9.7 | 12.9 | 0.00 | 0.25 | 0.25 | 99 | 1014.1 |
| 20260506153623 | 14 | 20 | 16.1 | 17.7 | 0.00 | 0.25 | 0.25 | 99 | 1013.9 |
| 20260506153120 | 14 | 11 | 11.3 | 14.5 | 0.00 | 0.25 | 0.25 | 99 | 1014.0 |
| 20260506152617 | 14 | 321 | 14.5 | 20.9 | 0.00 | 0.25 | 0.25 | 99 | 1013.7 |
| 20260506152115 | 13 | 349 | 14.5 | 16.1 | 0.00 | 0.25 | 0.25 | 99 | 1013.6 |
| 20260506151613 | 13 | 13 | 29.0 | 33.8 | 0.00 | 0.25 | 0.25 | 99 | 1013.5 |
| 20260506151109 | 13 | 12 | 20.9 | 24.1 | 0.00 | 0.25 | 0.25 | 99 | 1013.5 |
| 20260506150606 | 13 | 358 | 12.9 | 17.7 | 0.00 | 0.25 | 0.25 | 99 | 1013.4 |
| 20260506145600 | 13 | 12 | 14.5 | 24.1 | 0.00 | 0.25 | 0.25 | 99 | 1013.3 |
| 20260506145057 | 13 | 332 | 14.5 | 24.1 | 0.00 | 0.25 | 0.25 | 99 | 1013.5 |
| 20260506144554 | 13 | 350 | 12.9 | 16.1 | 0.00 | 0.25 | 0.25 | 99 | 1013.4 |
| 20260506144051 | 13 | 22 | 9.7 | 12.9 | 0.13 | 0.25 | 0.25 | 99 | 1013.3 |
| 20260506143549 | 13 | 348 | 9.7 | 14.5 | 0.13 | 0.25 | 0.25 | 99 | 1013.3 |
| 20260506143047 | 13 | 22 | 9.7 | 14.5 | 0.00 | 0.23 | 0.23 | 99 | 1013.2 |
| 20260506142544 | 13 | 345 | 11.3 | 16.1 | 0.00 | 0.23 | 0.23 | 99 | 1013.2 |
| 20260506142042 | 13 | 299 | 12.9 | 14.5 | 0.18 | 0.23 | 0.23 | 99 | 1013.3 |
| 20260506141540 | 13 | 313 | 12.9 | 17.7 | 0.18 | 0.23 | 0.23 | 99 | 1013.4 |
| 20260506141038 | 13 | 334 | 12.9 | 17.7 | 0.00 | 0.20 | 0.20 | 99 | 1013.3 |
| 20260506140535 | 13 | 1 | 14.5 | 17.7 | 0.13 | 0.20 | 0.20 | 99 | 1013.1 |
| 20260506140032 | 13 | 12 | 11.3 | 14.5 | 0.13 | 0.20 | 0.20 | 99 | 1013.0 |
| 20260506135529 | 13 | 332 | 12.9 | 20.9 | 0.00 | 0.18 | 0.18 | 99 | 1012.6 |
| 20260506135025 | 13 | 9 | 11.3 | 20.9 | 0.30 | 0.18 | 0.18 | 98 | 1012.5 |
| 20260506134522 | 13 | 339 | 19.3 | 27.4 | 0.30 | 0.18 | 0.18 | 97 | 1012.5 |
| 20260506134018 | 13 | 9 | 14.5 | 17.7 | 0.18 | 0.13 | 0.13 | 96 | 1012.5 |
| 20260506133515 | 14 | 338 | 11.3 | 16.1 | 0.48 | 0.13 | 0.13 | 95 | 1012.5 |
| 20260506133012 | 15 | 19 | 20.9 | 24.1 | 0.30 | 0.10 | 0.10 | 94 | 1012.3 |
| 20260506132509 | 15 | 20 | 22.5 | 33.8 | 0.00 | 0.05 | 0.05 | 92 | 1012.1 |
| 20260506132006 | 15 | 24 | 27.4 | 33.8 | 0.00 | 0.05 | 0.05 | 90 | 1012.3 |
| 20260506131503 | 15 | 12 | 33.8 | 48.3 | 0.00 | 0.05 | 0.05 | 89 | 1012.2 |
| 20260506131000 | 15 | 334 | 16.1 | 22.5 | 0.00 | 0.05 | 0.05 | 88 | 1012.2 |
| 20260506130456 | 15 | 349 | 20.9 | 27.4 | 0.00 | 0.05 | 0.05 | 88 | 1012.1 |
| 20260506125954 | 15 | 13 | 37.0 | 41.8 | 0.00 | 0.05 | 0.05 | 89 | 1012.3 |
| 20260506125452 | 15 | 17 | 24.1 | 29.0 | 0.00 | 0.05 | 0.05 | 91 | 1012.3 |
| 20260506124950 | 14 | 329 | 6.4 | 6.4 | 0.00 | 0.05 | 0.05 | 93 | 1012.3 |
| 20260506124447 | 13 | 18 | 9.7 | 14.5 | 0.00 | 0.05 | 0.05 | 94 | 1012.3 |
| 20260506123945 | 13 | 8 | 16.1 | 17.7 | 0.00 | 0.05 | 0.05 | 95 | 1012.1 |
| 20260506123443 | 13 | 29 | 9.7 | 11.3 | 0.18 | 0.05 | 0.05 | 95 | 1012.2 |
| 20260506122940 | 13 | 28 | 8.0 | 14.5 | 0.18 | 0.05 | 0.05 | 95 | 1012.1 |
| 20260506122437 | 13 | 306 | 12.9 | 14.5 | 0.18 | 0.05 | 0.05 | 94 | 1012.1 |
| 20260506121935 | 13 | 333 | 9.7 | 12.9 | 0.00 | 0.03 | 0.03 | 94 | 1012.3 |
| 20260506121432 | 13 | 340 | 4.8 | 6.4 | 0.00 | 0.03 | 0.03 | 94 | 1012.3 |
| 20260506120929 | 13 | 348 | 8.0 | 11.3 | 0.00 | 0.03 | 0.03 | 95 | 1012.2 |
| 20260506120426 | 12 | 7 | 11.3 | 12.9 | 0.00 | 0.03 | 0.03 | 95 | 1012.1 |
| 20260506115924 | 12 | 352 | 9.7 | 16.1 | 0.00 | 0.03 | 0.03 | 95 | 1012.1 |
| 20260506115421 | 12 | 9 | 12.9 | 16.1 | 0.00 | 0.03 | 0.03 | 96 | 1012.2 |
| 20260506114920 | 12 | 12 | 11.3 | 12.9 | 0.00 | 0.03 | 0.03 | 96 | 1011.9 |
| 20260506114417 | 12 | 355 | 14.5 | 20.9 | 0.00 | 0.03 | 0.03 | 96 | 1011.8 |
| 20260506113916 | 12 | 348 | 14.5 | 16.1 | 0.00 | 0.03 | 0.03 | 96 | 1011.8 |
| 20260506113412 | 12 | 358 | 9.7 | 12.9 | 0.00 | 0.03 | 0.03 | 96 | 1011.9 |
| 20260506112909 | 12 | 12 | 6.4 | 9.7 | 0.00 | 0.03 | 0.03 | 96 | 1011.8 |
| 20260506112407 | 12 | 1 | 11.3 | 12.9 | 0.13 | 0.03 | 0.03 | 95 | 1011.9 |
| 20260506111904 | 12 | 17 | 6.4 | 9.7 | 0.13 | 0.03 | 0.03 | 94 | 1011.8 |
| 20260506111402 | 12 | 341 | 9.7 | 12.9 | 0.00 | 0.00 | 0.00 | 93 | 1011.7 |
| 20260506110859 | 12 | 5 | 11.3 | 14.5 | 0.00 | 0.00 | 0.00 | 91 | 1012.0 |
| 20260506110356 | 12 | 343 | 16.1 | 22.5 | 0.00 | 0.00 | 0.00 | 89 | 1012.2 |
| 20260506105853 | 12 | 329 | 9.7 | 12.9 | 0.00 | 0.00 | 0.00 | 88 | 1011.8 |
| 20260506105349 | 12 | 358 | 11.3 | 16.1 | 0.00 | 0.00 | 0.00 | 88 | 1011.8 |
| 20260506104847 | 12 | 348 | 4.8 | 6.4 | 0.00 | 0.00 | 0.00 | 88 | 1011.7 |
| 20260506104344 | 13 | 337 | 14.5 | 17.7 | 0.00 | 0.00 | 0.00 | 88 | 1011.4 |
| 20260506103842 | 12 | 8 | 6.4 | 6.4 | 0.00 | 0.00 | 0.00 | 90 | 1011.3 |
| 20260506103339 | 12 | 14 | 9.7 | 12.9 | 0.00 | 0.00 | 0.00 | 91 | 1011.2 |
| 20260506102836 | 12 | 357 | 8.0 | 11.3 | 0.00 | 0.00 | 0.00 | 92 | 1011.3 |
| 20260506102334 | 12 | 31 | 6.4 | 6.4 | 0.00 | 0.00 | 0.00 | 92 | 1011.2 |
| 20260506101831 | 12 | 13 | 6.4 | 9.7 | 0.00 | 0.00 | 0.00 | 92 | 1011.2 |
| 20260506101327 | 12 | 12 | 12.9 | 16.1 | 0.00 | 0.00 | 0.00 | 93 | 1011.0 |
| 20260506100825 | 12 | 28 | 12.9 | 16.1 | 0.00 | 0.00 | 0.00 | 94 | 1011.2 |
| 20260506100324 | 11 | 39 | 9.7 | 12.9 | 0.00 | 0.00 | 0.00 | 95 | 1011.1 |
| 20260506095822 | 11 | 347 | 9.7 | 12.9 | 0.00 | 0.00 | 0.00 | 96 | 1011.3 |
| 20260506095318 | 11 | 357 | 11.3 | 12.9 | 0.00 | 0.00 | 0.00 | 97 | 1011.1 |
| 20260506094815 | 11 | 356 | 9.7 | 11.3 | 0.00 | 0.00 | 0.00 | 97 | 1011.1 |
| 20260506094314 | 11 | 354 | 11.3 | 12.9 | 0.00 | 0.00 | 0.00 | 98 | 1011.1 |
| 20260506093812 | 11 | 1 | 4.8 | 6.4 | 0.00 | 0.00 | 0.00 | 98 | 1011.1 |
| 20260506093308 | 11 | 58 | 1.6 | 3.2 | 0.00 | 0.00 | 0.00 | 98 | 1011.0 |
| 20260506092807 | 10 | 69 | 1.6 | 3.2 | 0.00 | 0.00 | 0.00 | 98 | 1011.0 |
| 20260506092306 | 10 | 80 | 1.6 | 1.6 | 0.00 | 0.00 | 0.00 | 98 | 1011.0 |
| 20260506091801 | 10 | 68 | 0.0 | 1.6 | 0.00 | 0.00 | 0.00 | 98 | 1011.0 |
| 20260506091258 | 10 | 88 | 0.0 | 0.0 | 0.00 | 0.00 | 0.00 | 98 | 1011.2 |
| 20260506090756 | 10 | 60 | 0.0 | 1.6 | 0.00 | 0.00 | 0.00 | 98 | 1011.2 |
| 20260506090253 | 10 | 63 | 1.6 | 3.2 | 0.00 | 0.00 | 0.00 | 98 | 1011.0 |
| 20260506085749 | 11 | 70 | 0.0 | 1.6 | 0.00 | 0.00 | 0.00 | 98 | 1010.9 |
| 20260506085246 | 10 | 75 | 0.0 | 1.6 | 0.00 | 0.00 | 0.00 | 98 | 1010.8 |
| 20260506084742 | 10 | 46 | 3.2 | 3.2 | 0.00 | 0.00 | 0.00 | 98 | 1010.9 |
| 20260506084239 | 10 | 10 | 3.2 | 4.8 | 0.00 | 0.00 | 0.00 | 98 | 1010.8 |
| 20260506083736 | 10 | 36 | 1.6 | 3.2 | 0.00 | 0.00 | 0.00 | 98 | 1010.7 |
| 20260506083234 | 10 | 64 | 1.6 | 1.6 | 0.00 | 0.00 | 0.00 | 98 | 1010.7 |
| 20260506082731 | 10 | 42 | 3.2 | 3.2 | 0.00 | 0.00 | 0.00 | 98 | 1010.8 |
| 20260506082226 | 11 | 85 | 0.0 | 1.6 | 0.00 | 0.00 | 0.00 | 98 | 1010.9 |
| 20260506081724 | 11 | 85 | 1.6 | 1.6 | 0.00 | 0.00 | 0.00 | 98 | 1010.8 |
| 20260506081221 | 11 | 48 | 0.0 | 1.6 | 0.00 | 0.00 | 0.00 | 98 | 1010.8 |
| 20260506080719 | 10 | 28 | 3.2 | 3.2 | 0.00 | 0.00 | 0.00 | 98 | 1011.0 |
| 20260506080215 | 10 | 52 | 3.2 | 3.2 | 0.00 | 0.00 | 0.00 | 98 | 1010.8 |
| 20260506073159 | 10 | 128 | 1.6 | 1.6 | 0.00 | 0.00 | 0.00 | 98 | 1010.9 |
| 20260506072656 | 10 | 77 | 0.0 | 0.0 | 0.00 | 0.00 | 0.00 | 98 | 1010.9 |
| 20260506072154 | 10 | 66 | 1.6 | 1.6 | 0.00 | 0.00 | 0.00 | 98 | 1010.9 |
| 20260506071651 | 10 | 42 | 3.2 | 3.2 | 0.00 | 0.00 | 0.00 | 98 | 1011.0 |
| 20260506071149 | 10 | 28 | 3.2 | 3.2 | 0.00 | 0.00 | 0.00 | 98 | 1011.2 |
| 20260506070646 | 10 | 44 | 3.2 | 3.2 | 0.00 | 0.00 | 0.00 | 98 | 1011.2 |
| 20260506070143 | 10 | 29 | 4.8 | 6.4 | 0.00 | 0.00 | 0.00 | 98 | 1011.4 |
| 20260506062120 | 9 | 129 | 0.0 | 0.0 | 0.00 | 0.00 | 0.00 | 97 | 1011.5 |
| 20260506061616 | 9 | 113 | 0.0 | 1.6 | 0.00 | 0.00 | 0.00 | 97 | 1011.6 |
| 20260506061114 | 10 | 85 | 0.0 | 0.0 | 0.00 | 0.00 | 0.00 | 97 | 1011.4 |